Location: Capvern
(43.1036°N, 0.3160°E)
Time: 22:53:31
(UTC+00:00)

ATLAS 5 CENTAUR R/B - Pass Details

Date: 16 October 2021
Orbit: 497 x 1159 km, 63.4° (Epoch: 25 November)

Event Time Altitude Azimuth Distance (km) Brightness Sun altitude
Rises 20:23:50 0° 262° (W) 2,632 5.5 -34.9°
Reaches altitude 10° 20:26:29 10° 282° (WNW) 1,806 4.7 -35.3°
Enters shadow 20:27:39 15° 298° (WNW) 1,567 4.3 -35.5°
